Weather History for Franklin, NC

Change the Weather History Date:

Monday, August 4, 2014

  Actual Average (KTOC) Record (KTOC)
Temperature  
Mean Temperature 71 °F -  
Max Temperature 82 °F 87 °F 88 °F (2014)
Min Temperature 60 °F 66 °F 69 °F (2014)
Cooling Degree Days 6    
Growing Degree Days 21 (Base 50)    
Moisture  
Dew Point 61 °F    
Average Humidity 82    
Maximum Humidity 100    
Minimum Humidity 37    
Precipitation  
Precipitation 0.01 in - - ()
Sea Level Pressure  
Sea Level Pressure 30.15 in    
Wind  
Wind Speed 1 mph (West)    
Max Wind Speed 6 mph    
Max Gust Speed -    
Visibility 8 miles    
Events Rain    
Averages and records for this station are not official NWS values.
T = Trace of Precipitation, MM = Missing Value Source: NWS Daily Summary

Daily Weather History Graph

Daily Weather History Graph

Search for Another Location

Airport:

Trip Planner

Search our weather history database for the weather conditions in past years. The results will help you decide how hot, cold, wet, or windy it might be!

Date:

Astronomy

Aug. 04, 2014 Rise Set
Actual Time 6:44 AM EDT 8:34 PM EDT
Civil Twilight 6:17 AM EDT 9:01 PM EDT
Nautical Twilight 5:43 AM EDT 9:35 PM EDT
Astronomical Twilight 5:08 AM EDT 10:10 PM EDT
Moon 2:45 PM EDT (8/4) 12:49 AM EDT (8/4)
Length of Visible Light 14h 44m
Length of Day
13h 49m
First Quarter, 57% of the Moon is Illuminated
Aug 4
First Quarter
Aug 10
Full
Aug 17
Last Quarter
Aug 25
New
Sep 2
First Quarter

Hourly Weather History & Observations

Time (EDT) Temp. Heat Index Dew Point Humidity Pressure Visibility Wind Dir Wind Speed Gust Speed Precip Events Conditions
12:15 AM 61.7 °F - 61.7 °F 100% 30.16 in 5.0 mi Calm Calm - N/A   Mist
12:35 AM 61.9 °F - 61.9 °F 100% 30.16 in 5.0 mi Calm Calm - N/A   Mist
1:15 AM 61.7 °F - 61.7 °F 100% 30.16 in 5.0 mi Calm Calm - N/A   Mist
1:35 AM 60.6 °F - 60.6 °F 100% 30.17 in 4.0 mi Calm Calm - N/A   Mist
1:55 AM 61.2 °F - 61.2 °F 100% 30.17 in 5.0 mi Calm Calm - N/A   Mist
2:15 AM 61.3 °F - 61.3 °F 100% 30.16 in 5.0 mi Calm Calm - N/A   Mist
2:35 AM 60.8 °F - 60.8 °F 100% 30.17 in 5.0 mi Calm Calm - N/A   Mist
2:55 AM 60.6 °F - 60.6 °F 100% 30.16 in 4.0 mi Calm Calm - N/A   Mist
3:15 AM 60.8 °F - 60.8 °F 100% 30.16 in 5.0 mi Calm Calm - N/A   Mist
3:35 AM 60.8 °F - 60.8 °F 100% 30.16 in 5.0 mi Calm Calm - N/A   Mist
3:55 AM 61.5 °F - 61.5 °F 100% 30.15 in 7.0 mi Calm Calm - N/A   Unknown
4:15 AM 61.2 °F - 61.2 °F 100% 30.16 in 7.0 mi Calm Calm - N/A   Unknown
4:35 AM 61.3 °F - 61.3 °F 100% 30.16 in 4.0 mi Calm Calm - N/A   Mist
4:55 AM 61.0 °F - 61.0 °F 100% 30.16 in 5.0 mi Calm Calm - N/A   Mist
5:15 AM 61.2 °F - 61.2 °F 100% 30.16 in 5.0 mi Calm Calm - N/A   Mist
5:35 AM 61.7 °F - 61.7 °F 100% 30.16 in 7.0 mi Calm Calm - N/A   Unknown
5:55 AM 61.2 °F - 61.2 °F 100% 30.16 in 5.0 mi Calm Calm - N/A   Drizzle
6:15 AM 61.5 °F - 61.5 °F 100% 30.17 in 5.0 mi Calm Calm - N/A   Mist
6:35 AM 61.3 °F - 61.3 °F 100% 30.17 in 5.0 mi West 3.5 mph - N/A   Drizzle
6:55 AM 61.3 °F - 61.3 °F 100% 30.17 in 7.0 mi Calm Calm - N/A   Unknown
7:15 AM 61.3 °F - 61.3 °F 100% 30.18 in 7.0 mi Calm Calm - N/A   Unknown
7:35 AM 61.3 °F - 61.3 °F 100% 30.18 in 4.0 mi Calm Calm - N/A Rain Light Rain
7:55 AM 61.3 °F - 61.3 °F 100% 30.18 in 5.0 mi Calm Calm - N/A   Mist
8:15 AM 61.2 °F - 61.2 °F 100% 30.19 in 4.0 mi Calm Calm - N/A Rain Light Rain
8:35 AM 61.5 °F - 61.5 °F 100% 30.20 in 5.0 mi Calm Calm - N/A   Mist
8:55 AM 62.1 °F - 62.1 °F 100% 30.20 in 7.0 mi Calm Calm - N/A   Unknown
9:15 AM 62.6 °F - 62.6 °F 100% 30.21 in 7.0 mi Calm Calm - N/A   Unknown
9:35 AM 63.7 °F - 63.5 °F 99% 30.20 in 7.0 mi Calm Calm - N/A   Unknown
9:55 AM 65.8 °F - 61.7 °F 86% 30.21 in 10.0 mi Calm Calm - N/A   Unknown
10:15 AM 67.1 °F - 60.4 °F 79% 30.20 in 10.0 mi Calm Calm - N/A   Unknown
10:35 AM 69.1 °F - 60.4 °F 74% 30.20 in 10.0 mi Calm Calm - N/A   Unknown
10:55 AM 70.7 °F - 61.7 °F 73% 30.20 in 10.0 mi Calm Calm - N/A   Unknown
11:15 AM 72.5 °F - 61.5 °F 68% 30.19 in 10.0 mi Calm Calm - N/A   Unknown
11:55 AM 74.5 °F - 61.5 °F 64% 30.18 in 10.0 mi Calm Calm - N/A   Unknown
12:15 PM 75.4 °F - 61.0 °F 61% 30.17 in 10.0 mi Calm Calm - N/A   Unknown
12:35 PM 77.7 °F - 60.8 °F 56% 30.17 in 10.0 mi NW 5.8 mph - N/A   Unknown
12:55 PM 78.1 °F - 56.3 °F 47% 30.16 in 10.0 mi Calm Calm - N/A   Unknown
1:15 PM 80.1 °F 80.8 °F 59.2 °F 49% 30.16 in 10.0 mi Calm Calm - N/A   Unknown
1:35 PM 79.7 °F - 56.5 °F 45% 30.15 in 10.0 mi WNW 4.6 mph - N/A   Unknown
1:55 PM 80.1 °F 80.4 °F 57.0 °F 45% 30.14 in 10.0 mi West 4.6 mph - N/A   Unknown
2:15 PM 79.5 °F - 58.6 °F 49% 30.14 in 10.0 mi SSW 3.5 mph - N/A   Unknown
2:35 PM 80.4 °F 80.7 °F 57.0 °F 45% 30.13 in 10.0 mi West 4.6 mph - N/A   Unknown
2:55 PM 81.1 °F 80.8 °F 54.9 °F 40% 30.12 in 10.0 mi Calm Calm - N/A   Unknown
3:15 PM 81.7 °F 81.2 °F 55.2 °F 40% 30.11 in 10.0 mi Calm Calm - N/A   Unknown
3:35 PM 81.9 °F 81.2 °F 54.5 °F 39% 30.11 in 10.0 mi WNW 3.5 mph - N/A   Unknown
3:55 PM 82.6 °F 81.6 °F 54.0 °F 37% 30.10 in 10.0 mi Calm Calm - N/A   Unknown
4:15 PM 82.4 °F 81.6 °F 54.5 °F 38% 30.09 in 10.0 mi Calm Calm - N/A   Unknown
4:35 PM 82.8 °F 81.7 °F 54.3 °F 37% 30.09 in 10.0 mi Calm Calm - N/A   Unknown
4:55 PM 77.5 °F - 61.3 °F 57% 30.10 in 10.0 mi South 3.5 mph - N/A   Unknown
5:15 PM 75.7 °F - 61.7 °F 62% 30.10 in 10.0 mi Calm Calm - N/A   Unknown
5:35 PM 74.5 °F - 62.2 °F 66% 30.11 in 10.0 mi Calm Calm - N/A Rain Light Rain
5:55 PM 73.0 °F - 64.4 °F 74% 30.11 in 10.0 mi West 4.6 mph - N/A   Unknown
6:15 PM 71.6 °F - 65.7 °F 81% 30.11 in 10.0 mi West 5.8 mph - N/A   Unknown
6:35 PM 72.3 °F - 64.8 °F 77% 30.11 in 10.0 mi West 3.5 mph - N/A   Unknown
6:55 PM 71.4 °F - 64.6 °F 79% 30.11 in 7.0 mi Calm Calm - 0.01 in Rain Rain
7:15 PM 70.2 °F - 64.2 °F 81% 30.11 in 10.0 mi Calm Calm - N/A Rain Light Rain
7:35 PM 69.4 °F - 66.2 °F 89% 30.12 in 10.0 mi Calm Calm - N/A   Unknown
7:55 PM 69.1 °F - 65.8 °F 89% 30.12 in 10.0 mi Calm Calm - N/A   Unknown
8:15 PM 68.9 °F - 66.7 °F 93% 30.13 in 10.0 mi West 3.5 mph - N/A   Unknown
8:35 PM 67.6 °F - 66.7 °F 97% 30.13 in 10.0 mi Calm Calm - N/A   Unknown
10:15 PM 64.4 °F - 64.4 °F 100% 30.15 in 5.0 mi Calm Calm - N/A   Mist
10:35 PM 63.9 °F - 63.9 °F 100% 30.16 in 5.0 mi West 4.6 mph - N/A   Mist
10:55 PM 63.5 °F - 63.5 °F 100% 30.16 in 5.0 mi WSW 3.5 mph - N/A   Mist
11:15 PM 63.1 °F - 63.1 °F 100% 30.16 in 5.0 mi Calm Calm - N/A   Mist
11:35 PM 62.6 °F - 62.6 °F 100% 30.16 in 4.0 mi Calm Calm - N/A   Mist
11:55 PM 62.1 °F - 62.1 °F 100% 30.17 in 4.0 mi Calm Calm - N/A   Mist